�N����,����,����,����,����,�C��,���x,�~����,���Ǝ���,�S�V����,�ő�u�ԕ���,,,
,,,,,,,,,,����,����,����,�N��
yyyy/mm/dd,hh:mm:ss,(16),16����,m/s,��,%,mm,min,KW/�u,(16),16����,m/s,Time
2011/7/1,1:00:00,315,�k��,1.2,16.3,94.9,0,0,0.01,293,���k��,2,59
2011/7/1,2:00:00,338,�k�k��,1.5,16.5,95,0,0,0.01,338,�k�k��,2.1,52
2011/7/1,3:00:00,270,��,1.2,16.7,95,0,0,0.01,248,���쐼,2,7
2011/7/1,4:00:00,270,��,2,17.1,94.6,0,0,0.01,248,���쐼,2.7,31
2011/7/1,5:00:00,360,�k,1.3,17.3,95,0,0,0.02,23,�k�k��,2.6,16
2011/7/1,6:00:00,270,��,1,18,94.6,0,0,0.04,270,��,2.1,46
2011/7/1,7:00:00,248,���쐼,0.8,19.5,90,0,19,0.12,293,���k��,1.9,1
2011/7/1,8:00:00,248,���쐼,1.9,21.6,81.8,0,60,0.31,248,���쐼,2.7,57
2011/7/1,9:00:00,180,��,1.2,22.5,79.3,0,60,0.27,225,�쐼,2.8,5
2011/7/1,10:00:00,135,�쓌,2.3,23.4,74.9,0,60,0.67,135,�쓌,4,56
2011/7/1,11:00:00,135,�쓌,2.7,22.7,71.3,0,60,0.79,135,�쓌,5.2,43
2011/7/1,12:00:00,158,��쓌,3.4,22.8,75.2,0,60,0.91,158,��쓌,6.6,40
2011/7/1,13:00:00,158,��쓌,3.5,22.9,74.6,0,60,0.93,180,��,6.8,59
2011/7/1,14:00:00,158,��쓌,3.8,22.6,72.5,0,60,0.89,158,��쓌,6.6,18
2011/7/1,15:00:00,158,��쓌,3.7,21.5,73.4,0,60,0.76,158,��쓌,6.6,21
2011/7/1,16:00:00,180,��,3.5,20.8,79.4,0,60,0.59,158,��쓌,6.5,11
2011/7/1,17:00:00,113,���쓌,2.7,18.6,83,0,60,0.39,158,��쓌,5.3,3
2011/7/1,18:00:00,45,�k��,2.7,16.5,90.4,0,38,0.16,90,��,4.4,19
2011/7/1,19:00:00,45,�k��,0.9,15.9,94.2,0,0,0.05,45,�k��,3.8,6
2011/7/1,20:00:00,45,�k��,0.9,15.3,95.8,0,0,0.01,45,�k��,3.3,34
2011/7/1,21:00:00,45,�k��,0.9,15.4,95.9,0,0,0.01,68,���k��,2.1,26
2011/7/1,22:00:00,23,�k�k��,1.9,15.4,96,0,0,0.01,23,�k�k��,2.6,52
2011/7/1,23:00:00,360,�k,1.7,15.9,95.7,0,0,0.01,360,�k,2.5,53
2011/7/1,0:00:00,23,�k�k��,1.1,16.2,95.5,0,0,0.01,360,�k,3.6,33
2011/7/2,1:00:00,23,�k�k��,1.1,15.7,96.8,0,0,0.01,23,�k�k��,2.1,22
2011/7/2,2:00:00,45,�k��,1.8,15.3,97.9,0,0,0.01,23,�k�k��,2.6,50
2011/7/2,3:00:00,68,���k��,1.8,14.7,98.4,0,0,0.01,68,���k��,2.6,47
2011/7/2,4:00:00,68,���k��,2.1,14.7,98.7,0,0,0.01,45,�k��,3.2,51
2011/7/2,5:00:00,68,���k��,1.9,14.4,98.7,0,0,0.02,68,���k��,3.1,45
2011/7/2,6:00:00,90,��,1.9,14.6,98.8,0,0,0.05,90,��,2.6,51
2011/7/2,7:00:00,68,���k��,1.4,15,98.8,0,5,0.09,68,���k��,2.3,30
2011/7/2,8:00:00,90,��,2.3,15,98.8,0,23,0.12,45,�k��,3.4,51
2011/7/2,9:00:00,90,��,2.3,14.1,98.8,0,44,0.13,68,���k��,3.9,47
2011/7/2,10:00:00,90,��,2.4,14.5,98.9,0,60,0.2,90,��,4.6,16
2011/7/2,11:00:00,90,��,2.8,16.1,95.9,0,60,0.38,113,���쓌,4,49
2011/7/2,12:00:00,90,��,3.2,17.5,84,0,60,0.59,90,��,5,51
2011/7/2,13:00:00,90,��,2.9,17.5,80.9,0,60,0.53,90,��,4.8,14
2011/7/2,14:00:00,113,���쓌,1.5,16.8,84.6,0,60,0.46,90,��,4.1,0
2011/7/2,15:00:00,90,��,2.7,16.7,87.8,0,60,0.45,90,��,4.6,43
2011/7/2,16:00:00,90,��,2.8,15.3,90.4,0,60,0.45,90,��,4.7,33
2011/7/2,17:00:00,113,���쓌,2.7,14.2,95,0,41,0.14,135,�쓌,4.7,11
2011/7/2,18:00:00,135,�쓌,2.5,13.4,96.7,0,0,0.06,113,���쓌,4.4,20
2011/7/2,19:00:00,180,��,2,13.1,98,0,0,0.02,113,���쓌,3.9,16
2011/7/2,20:00:00,113,���쓌,2,13.1,98.5,0,0,0.01,180,��,3.8,38
2011/7/2,21:00:00,135,�쓌,2,13,98.7,0,0,0.01,113,���쓌,3.9,22
2011/7/2,22:00:00,135,�쓌,1.3,13,98.9,0,0,0.01,135,�쓌,3.3,9
2011/7/2,23:00:00,158,��쓌,1.2,12.3,98.9,0,0,0.01,180,��,2.7,50
2011/7/2,0:00:00,180,��,1.9,12.4,99,0,0,0.01,180,��,2.8,48
2011/7/3,1:00:00,135,�쓌,1.4,12.6,99,0,0,0.01,135,�쓌,2.9,29
2011/7/3,2:00:00,180,��,1.7,12.7,98.8,0,0,0.01,45,�k��,2.4,15
2011/7/3,3:00:00,135,�쓌,2.1,12.9,98.7,0,0,0.01,203,��쐼,3,58
2011/7/3,4:00:00,225,�쐼,1.5,12.9,98.6,0,0,0.01,203,��쐼,3.1,1
2011/7/3,5:00:00,158,��쓌,0.8,13.1,98.6,0,0,0.03,225,�쐼,2.2,0
2011/7/3,6:00:00,270,��,1,13.4,98.1,0,0,0.08,225,�쐼,2,30
2011/7/3,7:00:00,135,�쓌,1.4,13.5,97,0,7,0.1,113,���쓌,2.9,57
2011/7/3,8:00:00,135,�쓌,1.2,13.9,97.2,0,57,0.17,113,���쓌,2.9,5
2011/7/3,9:00:00,90,��,0.9,14.9,92.6,0,60,0.29,90,��,3.2,22
2011/7/3,10:00:00,113,���쓌,2.4,15,89.4,0,60,0.34,135,�쓌,3.9,56
2011/7/3,11:00:00,113,���쓌,2.4,14.7,92.2,0,60,0.36,158,��쓌,4.2,27
2011/7/3,12:00:00,90,��,2,15.3,90.2,0,60,0.38,90,��,4,47
2011/7/3,13:00:00,68,���k��,2.9,15,91.7,0,60,0.31,90,��,4.3,31
2011/7/3,14:00:00,90,��,2.7,14.3,92.1,0,60,0.21,68,���k��,4.8,32
2011/7/3,15:00:00,68,���k��,2.8,14.1,95.3,0,60,0.19,90,��,4.6,13
2011/7/3,16:00:00,68,���k��,3.2,13.8,96.5,0,48,0.16,90,��,4.6,37
2011/7/3,17:00:00,68,���k��,3.2,13.9,97.1,0,24,0.11,90,��,4.1,57
2011/7/3,18:00:00,68,���k��,2.8,13.6,97.8,0,6,0.08,90,��,4.2,28
2011/7/3,19:00:00,68,���k��,2,13.6,98.4,0,0,0.02,68,���k��,3.4,10
2011/7/3,20:00:00,23,�k�k��,1.2,13.7,98.6,0,0,0.01,23,�k�k��,2.9,30
2011/7/3,21:00:00,23,�k�k��,1.4,13.6,98.8,0,0,0.01,360,�k,2.5,48
2011/7/3,22:00:00,360,�k,0.8,13.8,98.8,0,0,0.01,360,�k,2.7,11
2011/7/3,23:00:00,360,�k,1.6,13.9,98.8,0,0,0.01,360,�k,2.8,46
2011/7/3,0:00:00,315,�k��,0.6,14,98.9,0.5,0,0.01,360,�k,2.4,8
2011/7/4,1:00:00,293,���k��,0.6,14.4,98.9,0,0,0.01,293,���k��,2.2,27
2011/7/4,2:00:00,293,���k��,1.6,14.6,98.8,1,0,0.01,293,���k��,2.3,56
2011/7/4,3:00:00,270,��,1.8,14.9,98.8,0,0,0.01,270,��,2.5,54
2011/7/4,4:00:00,248,���쐼,0.8,14.8,98.8,0,0,0.01,248,���쐼,1.7,0
2011/7/4,5:00:00,360,�k,0.5,15.2,98.8,0.5,0,0.01,360,�k,1.5,40
2011/7/4,6:00:00,68,���k��,1.8,14.6,98.8,1,0,0.03,45,�k��,5,32
2011/7/4,7:00:00,68,���k��,2.2,14.8,98.7,1,0,0.04,45,�k��,3.6,54
2011/7/4,8:00:00,45,�k��,2.6,14.4,98.7,2.5,0,0.05,68,���k��,5.5,33
2011/7/4,9:00:00,45,�k��,3.3,14.3,98.8,1,0,0.06,45,�k��,4.6,53
2011/7/4,10:00:00,45,�k��,3.1,14.1,98.7,1,23,0.11,45,�k��,6.2,42
2011/7/4,11:00:00,68,���k��,2.3,14.1,98.7,2.5,16,0.09,45,�k��,6.5,24
2011/7/4,12:00:00,68,���k��,4.6,13.6,98.7,3,0,0.07,45,�k��,7.1,45
2011/7/4,13:00:00,68,���k��,3.6,14,98.8,2,9,0.08,68,���k��,6.4,42
2011/7/4,14:00:00,45,�k��,2.9,14.6,98.8,2,0,0.07,45,�k��,6.1,5
2011/7/4,15:00:00,68,���k��,1.6,15.5,98.8,1.5,6,0.09,68,���k��,2.7,58
2011/7/4,16:00:00,113,���쓌,2.6,16.3,98.8,0,11,0.09,135,�쓌,6.3,55
2011/7/4,17:00:00,315,�k��,1.4,18.4,98.4,0,41,0.15,135,�쓌,6.3,24
2011/7/4,18:00:00,90,��,2.2,18.1,94.5,0,12,0.07,90,��,8.8,32
2011/7/4,19:00:00,158,��쓌,3.4,21.4,83.9,0,0,0.04,135,�쓌,6.6,54
2011/7/4,20:00:00,158,��쓌,2.8,18.8,95.7,0,0,0.01,180,��,5.4,0
2011/7/4,21:00:00,360,�k,1.1,18.4,94.7,0,0,0.01,90,��,5.3,48
2011/7/4,22:00:00,248,���쐼,2.9,19.3,87,0,0,0.01,225,�쐼,7.2,21
2011/7/4,23:00:00,158,��쓌,3,20.3,83.6,0,0,0.01,180,��,5.8,39
2011/7/4,0:00:00,180,��,3.8,20.8,81.1,0,0,0.01,203,��쐼,7.9,59
2011/7/5,1:00:00,180,��,3.6,20.7,79.4,0,0,0.01,203,��쐼,5.8,51
2011/7/5,2:00:00,180,��,2.4,19.6,82.4,0,0,0.01,180,��,8.4,3
2011/7/5,3:00:00,180,��,2.9,18.7,83.5,0,0,0.01,180,��,4.5,15
2011/7/5,4:00:00,203,��쐼,3.5,18.4,88.9,0,0,0.01,180,��,6.6,59
2011/7/5,5:00:00,90,��,1.9,19.2,85,0,15,0.09,203,��쐼,6.4,16
2011/7/5,6:00:00,90,��,2.9,21.4,76.9,0,60,0.23,203,��쐼,5.8,25
2011/7/5,7:00:00,135,�쓌,1.8,22.4,68.6,0,60,0.54,158,��쓌,6.3,24
2011/7/5,8:00:00,203,��쐼,3.9,23.5,66.3,0,60,0.54,203,��쐼,7.1,30
2011/7/5,9:00:00,248,���쐼,5.8,24.7,61.7,0,60,0.74,248,���쐼,10.5,51
2011/7/5,10:00:00,225,�쐼,6.2,25.4,57.1,0,60,0.91,225,�쐼,9.5,3
2011/7/5,11:00:00,203,��쐼,5.6,25.6,62.9,0,60,1,203,��쐼,9.6,55
2011/7/5,12:00:00,225,�쐼,5.2,26.2,62.5,0,60,1.04,225,�쐼,10.2,13
2011/7/5,13:00:00,225,�쐼,7.2,26.2,51.9,0,60,0.97,225,�쐼,10.8,53
2011/7/5,14:00:00,203,��쐼,5,24.4,69.6,0,60,0.85,248,���쐼,10.1,5
2011/7/5,15:00:00,225,�쐼,7.6,24.2,63.1,0,60,0.64,225,�쐼,11.6,26
2011/7/5,16:00:00,203,��쐼,4.7,22.9,69.3,0,60,0.38,225,�쐼,10.2,28
2011/7/5,17:00:00,203,��쐼,4.1,22.3,72.6,0,60,0.24,225,�쐼,7.7,4
2011/7/5,18:00:00,203,��쐼,4,21.7,70.3,0,6,0.09,203,��쐼,6.4,49
2011/7/5,19:00:00,203,��쐼,5,21.9,67.8,0,0,0.05,203,��쐼,7.9,55
2011/7/5,20:00:00,225,�쐼,2.2,20.9,72.9,0,0,0.01,225,�쐼,8.2,8
2011/7/5,21:00:00,225,�쐼,3.5,21.3,67.5,0,0,0.01,225,�쐼,6.3,38
2011/7/5,22:00:00,248,���쐼,4.2,21.2,71.6,0,0,0.01,225,�쐼,6.7,51
2011/7/5,23:00:00,203,��쐼,3.5,20.1,76.2,0,0,0.01,248,���쐼,8.8,2
2011/7/5,0:00:00,180,��,4,19.6,78.2,0,0,0.01,225,�쐼,7.1,29
2011/7/6,1:00:00,225,�쐼,6.7,19.4,80.3,0,0,0.01,225,�쐼,8.8,53
2011/7/6,2:00:00,203,��쐼,3.3,18.5,85.2,0,0,0.01,225,�쐼,9.8,1
2011/7/6,3:00:00,225,�쐼,4.9,19.2,83.1,0,0,0.01,203,��쐼,8.8,56
2011/7/6,4:00:00,135,�쓌,1.2,16.3,88.6,0,0,0.01,225,�쐼,7.2,0
2011/7/6,5:00:00,180,��,4.2,18.8,84.8,0,0,0.04,180,��,5.4,50
2011/7/6,6:00:00,203,��쐼,2.5,18.1,85.9,0,20,0.11,180,��,5.4,6
2011/7/6,7:00:00,338,�k�k��,0.7,21.2,76.8,0,60,0.32,203,��쐼,2.2,5
2011/7/6,8:00:00,158,��쓌,2.2,23.2,68.8,0,60,0.61,158,��쓌,3.3,54
2011/7/6,9:00:00,135,�쓌,2,23.9,62.6,0,60,0.77,113,���쓌,3.7,27
2011/7/6,10:00:00,113,���쓌,3.4,25.4,57.4,0,60,0.93,90,��,5.1,54
2011/7/6,11:00:00,135,�쓌,3.4,24.8,64.3,0,60,1.02,135,�쓌,5.7,55
2011/7/6,12:00:00,135,�쓌,3.9,26.5,58.7,0,60,1.05,135,�쓌,5.8,53
2011/7/6,13:00:00,135,�쓌,4.5,24.8,57.2,0,60,1.03,135,�쓌,6.8,42
2011/7/6,14:00:00,158,��쓌,4,24,59.5,0,60,0.78,158,��쓌,7,58
2011/7/6,15:00:00,158,��쓌,4.3,24.6,57.2,0,60,0.65,180,��,7.6,20
2011/7/6,16:00:00,158,��쓌,2.5,23.8,66.6,0,60,0.35,158,��쓌,6.1,9
2011/7/6,17:00:00,180,��,1.6,23.4,70.8,0,60,0.23,180,��,3.8,21
2011/7/6,18:00:00,248,���쐼,3.3,23.9,65.9,0,42,0.16,248,���쐼,5.8,39
2011/7/6,19:00:00,225,�쐼,1.6,21.3,76.1,0,0,0.03,248,���쐼,4.6,4
2011/7/6,20:00:00,270,��,1,18.9,86.5,0,0,0.01,203,��쐼,2.9,39
2011/7/6,21:00:00,23,�k�k��,1.6,17.4,91.3,0,0,0.01,360,�k,3.7,49
2011/7/6,22:00:00,90,��,3.8,13.1,93.2,0,0,0.01,90,��,6.2,42
2011/7/6,23:00:00,23,�k�k��,3.2,13.6,95.3,0,0,0.01,45,�k��,6.4,8
2011/7/6,0:00:00,315,�k��,1.3,14.7,94.8,0,0,0.01,23,�k�k��,5.3,11
2011/7/7,1:00:00,248,���쐼,1.5,14.2,94.2,0,0,0.01,270,��,3.2,38
2011/7/7,2:00:00,248,���쐼,1.2,11.8,97,0,0,0.01,248,���쐼,1.9,4
2011/7/7,3:00:00,293,���k��,1,11.3,97.7,0,0,0.01,293,���k��,1.9,52
2011/7/7,4:00:00,248,���쐼,1.3,12,98.3,0,0,0.01,293,���k��,2.2,7
2011/7/7,5:00:00,270,��,1.6,13.3,98.6,0,0,0.06,270,��,2.6,57
2011/7/7,6:00:00,270,��,0.6,17,93.4,0,60,0.22,270,��,2.3,7
2011/7/7,7:00:00,68,���k��,0.9,19.4,82.5,0,60,0.41,113,���쓌,3.5,59
2011/7/7,8:00:00,113,���쓌,2.6,18.6,81.4,0,60,0.6,135,�쓌,4.4,3
2011/7/7,9:00:00,68,���k��,2.9,21.4,75.8,0,60,0.76,90,��,4.9,47
2011/7/7,10:00:00,68,���k��,5.4,20.7,73,0,60,0.91,68,���k��,7,46
2011/7/7,11:00:00,90,��,3.2,20.7,71,0,60,1.01,90,��,6.3,0
2011/7/7,12:00:00,90,��,3.6,20.6,71.8,0,60,1.03,68,���k��,5.1,48
2011/7/7,13:00:00,68,���k��,3.2,19.4,79.7,0,60,0.87,68,���k��,6.1,25
2011/7/7,14:00:00,68,���k��,3.8,18.2,88.2,0,60,0.7,45,�k��,5.7,50
2011/7/7,15:00:00,68,���k��,3.8,17.4,90.2,0,60,0.54,90,��,5.2,43
2011/7/7,16:00:00,90,��,2.6,17.5,90.8,0,60,0.28,45,�k��,4.5,24
2011/7/7,17:00:00,90,��,2.7,17.1,92.8,0,23,0.16,68,���k��,3.7,59
2011/7/7,18:00:00,45,�k��,2.6,16.4,96.7,0,0,0.06,90,��,3.7,1
2011/7/7,19:00:00,45,�k��,2.3,16,98.1,0,0,0.02,45,�k��,4.2,35
2011/7/7,20:00:00,68,���k��,3.1,15.5,98.4,0,0,0.01,45,�k��,4.4,55
2011/7/7,21:00:00,45,�k��,2.9,15.8,98.6,0,0,0.01,68,���k��,5,0
2011/7/7,22:00:00,68,���k��,2.2,15.7,98.6,0,0,0.01,45,�k��,4.5,0
2011/7/7,23:00:00,45,�k��,2.9,15.8,98.7,0,0,0.01,45,�k��,4.6,36
2011/7/7,0:00:00,45,�k��,1.9,15.7,98.7,0,0,0.01,45,�k��,4,39
2011/7/8,1:00:00,68,���k��,1.4,15.7,98.8,0,0,0.01,45,�k��,3,28
2011/7/8,2:00:00,90,��,1.7,15.8,98.9,0.5,0,0.01,68,���k��,3.1,58
2011/7/8,3:00:00,23,�k�k��,2.1,15.7,98.9,0.5,0,0.01,45,�k��,4.1,28
2011/7/8,4:00:00,360,�k,0.7,15.7,98.9,0.5,0,0.01,23,�k�k��,4.6,7
2011/7/8,5:00:00,68,���k��,1.9,15.9,98.9,0.5,0,0.02,68,���k��,2.3,56
2011/7/8,6:00:00,203,��쐼,0.7,15.7,98.8,0,0,0.03,68,���k��,2.8,28
2011/7/8,7:00:00,360,�k,0.7,16.1,98.8,0.5,0,0.07,338,�k�k��,1.3,55
2011/7/8,8:00:00,113,���쓌,1.4,16.7,98.7,0,27,0.1,45,�k��,3.4,28
2011/7/8,9:00:00,68,���k��,2.3,17.2,98.7,1.5,8,0.09,68,���k��,3.7,53
2011/7/8,10:00:00,90,��,3.1,16.5,98.5,0.5,50,0.17,90,��,4.4,31
2011/7/8,11:00:00,90,��,1.9,16.9,98.4,0,60,0.22,68,���k��,4,35
2011/7/8,12:00:00,90,��,2.1,16.7,98.4,0,60,0.17,68,���k��,3.2,49
2011/7/8,13:00:00,113,���쓌,1.8,16.2,98.6,0,53,0.15,135,�쓌,2.7,41
2011/7/8,14:00:00,113,���쓌,0.8,16.3,98.7,0.5,51,0.13,135,�쓌,2.6,5
2011/7/8,15:00:00,113,���쓌,0.7,16.9,98.5,0,45,0.16,113,���쓌,1.5,53
2011/7/8,16:00:00,90,��,0.9,17.9,97.5,0,54,0.19,68,���k��,1.6,37
2011/7/8,17:00:00,113,���쓌,1.2,17.6,97.4,0,37,0.13,135,�쓌,2,43
2011/7/8,18:00:00,135,�쓌,1.1,17,97.6,0,0,0.08,158,��쓌,2.3,23
2011/7/8,19:00:00,135,�쓌,1.1,15.6,98,0,0,0.02,158,��쓌,2,46
2011/7/8,20:00:00,90,��,1,15.4,98.5,0,0,0.01,113,���쓌,2.2,49
2011/7/8,21:00:00,23,�k�k��,1.6,14.7,98.6,0,0,0.01,90,��,2.8,13
2011/7/8,22:00:00,68,���k��,1.3,15.4,98.9,0,0,0.01,45,�k��,2.2,56
2011/7/8,23:00:00,158,��쓌,1.1,15.1,98.8,0,0,0.01,338,�k�k��,2,14
2011/7/8,0:00:00,360,�k,1.5,14.8,98.9,0,0,0.01,23,�k�k��,2.9,38
2011/7/9,1:00:00,293,���k��,1.2,15.6,98.9,0,0,0.01,293,���k��,1.7,54
2011/7/9,2:00:00,248,���쐼,0.6,16.1,98.8,0,0,0.01,315,�k��,2.1,24
2011/7/9,3:00:00,293,���k��,0.8,16.7,98.7,0,0,0.01,248,���쐼,3.1,18
2011/7/9,4:00:00,293,���k��,0.7,16.8,98.7,0,0,0.01,270,��,2.1,28
2011/7/9,5:00:00,315,�k��,0.5,18,98.5,0,13,0.07,270,��,2.7,5
2011/7/9,6:00:00,270,��,1.9,19.7,96.8,0,60,0.2,270,��,3.4,51
2011/7/9,7:00:00,45,�k��,0.5,20.6,93.3,0,60,0.21,45,�k��,3.3,16
2011/7/9,8:00:00,315,�É�,0.2,21.9,91.1,0,60,0.19,315,�k��,1.4,20
2011/7/9,9:00:00,45,�k��,1,25.9,85,0,60,0.54,338,�k�k��,2.4,44
2011/7/9,10:00:00,113,���쓌,1.4,25,77.7,0,60,0.76,135,�쓌,3.7,41
2011/7/9,11:00:00,113,���쓌,2.2,25.3,75.3,0,60,0.84,135,�쓌,3.8,17
2011/7/9,12:00:00,113,���쓌,2.4,26.7,68.3,0,60,0.85,90,��,4,15
2011/7/9,13:00:00,113,���쓌,2,26.7,69.2,0,60,0.66,90,��,4.2,16
2011/7/9,14:00:00,113,���쓌,2.2,27.2,67,0,60,0.73,68,���k��,3.9,32
2011/7/9,15:00:00,135,�쓌,1.3,25.5,72.6,0,60,0.42,158,��쓌,3.9,32
2011/7/9,16:00:00,248,���쐼,0.9,24.6,73.6,0,60,0.32,158,��쓌,3.1,14
2011/7/9,17:00:00,293,���k��,0.9,26,79.1,0,60,0.18,225,�쐼,1.8,7
2011/7/9,18:00:00,248,���쐼,0.7,25.9,80.2,0,40,0.14,225,�쐼,2.8,22
2011/7/9,19:00:00,248,���쐼,1.4,24.3,91,0,0,0.05,270,��,2.3,15
2011/7/9,20:00:00,248,���쐼,1.7,23.5,94.6,0,0,0.01,270,��,2.7,41
2011/7/9,21:00:00,45,�k��,5.2,19.5,88.6,0,0,0.01,45,�k��,9.2,28
2011/7/9,22:00:00,68,���k��,3.3,19.6,89.7,0,0,0.01,45,�k��,7.7,14
2011/7/9,23:00:00,45,�k��,3.4,19.5,90.9,0,0,0.01,68,���k��,5.1,23
2011/7/9,0:00:00,68,���k��,1.7,18.4,94.3,0,0,0.01,45,�k��,5.1,18
2011/7/10,1:00:00,68,���k��,1.4,18.4,95.6,0,0,0.01,68,���k��,2.7,45
2011/7/10,2:00:00,68,���k��,2.9,18.2,95.6,0,0,0.01,45,�k��,5.1,42
2011/7/10,3:00:00,68,���k��,2.1,17.5,97.4,0,0,0.01,45,�k��,4.1,24
2011/7/10,4:00:00,45,�k��,1.2,17.3,97.8,0,0,0.01,68,���k��,3.5,6
2011/7/10,5:00:00,90,��,1.5,16.6,98,0,0,0.02,68,���k��,3.8,10
2011/7/10,6:00:00,68,���k��,2.4,16.2,98.4,0,0,0.05,68,���k��,3.3,40
2011/7/10,7:00:00,68,���k��,1.8,16,98.5,0,27,0.12,113,���쓌,4,37
2011/7/10,8:00:00,45,�k��,1.3,18.5,96.7,0,58,0.37,90,��,3.1,41
2011/7/10,9:00:00,68,���k��,2.3,20.9,87,0,60,0.59,45,�k��,3.9,41
2011/7/10,10:00:00,68,���k��,3.1,20.6,82.1,0,60,0.71,90,��,4.6,49
2011/7/10,11:00:00,68,���k��,3.9,19.4,88.8,0,60,0.68,90,��,6.1,37
2011/7/10,12:00:00,68,���k��,3.7,22.6,83.3,0,60,0.66,90,��,5.8,58
2011/7/10,13:00:00,113,���쓌,1.9,23.8,83.2,0,60,0.96,90,��,6.2,12
2011/7/10,14:00:00,135,�쓌,2.6,22.8,81.6,0,60,0.87,113,���쓌,4.3,27
2011/7/10,15:00:00,180,��,1.8,24.1,75.8,0,60,0.76,135,�쓌,4.3,23
2011/7/10,16:00:00,180,��,2,25.9,75.2,0,60,0.6,180,��,4.2,44
2011/7/10,17:00:00,180,��,1.7,25.9,77.6,0,60,0.41,158,��쓌,3.5,0
2011/7/10,18:00:00,158,��쓌,1.8,22,86.7,0,31,0.14,135,�쓌,3.5,1
2011/7/10,19:00:00,45,�k��,2.8,17.6,92,0,3,0.05,90,��,7.2,16
2011/7/10,20:00:00,315,�É�,0.2,18.1,93.7,0,0,0.01,68,���k��,3.6,0
2011/7/10,21:00:00,68,���k��,3.1,18.9,91.1,0,0,0.01,68,���k��,4.6,42
2011/7/10,22:00:00,203,��쐼,1.2,17.9,95.1,0,0,0.01,45,�k��,3.1,1
2011/7/10,23:00:00,158,��쓌,1.9,17.6,93.2,0,0,0.01,158,��쓌,2.6,52
2011/7/10,0:00:00,158,��쓌,1.5,17.4,93,0,0,0.01,135,�쓌,3.1,3
2011/7/11,1:00:00,203,��쐼,0.8,17,95,0,0,0.01,248,���쐼,1.7,48
2011/7/11,2:00:00,248,���쐼,1,17.5,95.7,0,0,0.01,225,�쐼,1.9,48
2011/7/11,3:00:00,180,�É�,0.1,17.1,94,0,0,0.01,225,�쐼,1.4,42
2011/7/11,4:00:00,45,�k��,0.3,15.7,97.5,0,0,0.01,360,�k,1.3,21
2011/7/11,5:00:00,135,�쓌,0.8,16.5,97.8,0,0,0.06,180,��,1.3,57
2011/7/11,6:00:00,180,��,1.7,17.9,91.4,0,47,0.18,180,��,3.1,48
2011/7/11,7:00:00,158,��쓌,2.7,18.2,88.1,0,60,0.29,158,��쓌,4.4,46
2011/7/11,8:00:00,158,��쓌,3.4,18.3,83.3,0,60,0.47,158,��쓌,5.6,49
2011/7/11,9:00:00,158,��쓌,2.7,17.2,86.6,0,60,0.52,135,�쓌,5.3,11
2011/7/11,10:00:00,158,��쓌,3.1,17.7,87.2,0,60,0.47,158,��쓌,6.1,48
2011/7/11,11:00:00,113,���쓌,2.6,17.1,89.1,0,60,0.4,158,��쓌,5.2,0
2011/7/11,12:00:00,113,���쓌,2.3,16.7,88.7,0,60,0.31,113,���쓌,4.1,19
2011/7/11,13:00:00,113,���쓌,2.3,16.5,85.7,0,60,0.36,113,���쓌,4.5,14
2011/7/11,14:00:00,90,��,3.1,16.1,87.9,0,60,0.34,113,���쓌,4.4,24
2011/7/11,15:00:00,90,��,2.7,16.8,86.2,0,60,0.37,68,���k��,4.4,49
2011/7/11,16:00:00,90,��,2.6,15.8,90.2,0,57,0.23,90,��,3.9,48
2011/7/11,17:00:00,113,���쓌,1.6,15.4,89.8,0,33,0.15,90,��,3.5,9
2011/7/11,18:00:00,113,���쓌,1,15,92.7,0,11,0.1,90,��,3,17
2011/7/11,19:00:00,113,���쓌,1.3,14.6,94.8,0,0,0.02,135,�쓌,2.6,2
2011/7/11,20:00:00,90,��,1.8,14.5,96.1,0,0,0.01,90,��,2.2,59
2011/7/11,21:00:00,68,���k��,1,14.5,97.3,0,0,0.01,68,���k��,1.9,14
2011/7/11,22:00:00,90,��,1.3,14.5,98,0,0,0.01,90,��,2.3,51
2011/7/11,23:00:00,23,�k�k��,1,14.6,98.5,0,0,0.01,113,���쓌,2.2,26
2011/7/11,0:00:00,45,�k��,1.2,14.5,98.7,0,0,0.01,360,�k,2,50
2011/7/12,1:00:00,68,���k��,1.6,14.6,98.8,0,0,0.01,90,��,2.6,23
2011/7/12,2:00:00,90,��,2.5,14.6,98.8,0,0,0.01,90,��,4.2,55
2011/7/12,3:00:00,45,�k��,1.7,14.6,98.9,0,0,0.01,45,�k��,3.6,49
2011/7/12,4:00:00,338,�k�k��,0.9,14.7,99,0,0,0.01,360,�k,2.4,36
2011/7/12,5:00:00,23,�k�k��,1.4,14.6,99,0,0,0.02,360,�k,2.5,12
2011/7/12,6:00:00,45,�k��,1.3,15.5,99,0,8,0.08,360,�k,2.7,45
2011/7/12,7:00:00,45,�k��,1.7,16,98.7,0,59,0.16,23,�k�k��,2.4,56
2011/7/12,8:00:00,68,���k��,2.3,16,98.5,0,59,0.17,68,���k��,3.2,54
2011/7/12,9:00:00,135,�쓌,0.8,17,97.6,0,60,0.3,90,��,3.3,1
2011/7/12,10:00:00,113,���쓌,1.5,20.8,85.9,0,60,0.74,113,���쓌,3,58
2011/7/12,11:00:00,135,�쓌,1.9,20.7,83.2,0,60,0.98,158,��쓌,3.7,7
2011/7/12,12:00:00,135,�쓌,1.6,21.5,78.7,0,60,1.01,135,�쓌,3.4,6
2011/7/12,13:00:00,158,��쓌,2.2,22.3,80,0,60,0.98,158,��쓌,4.5,29
2011/7/12,14:00:00,135,�쓌,2.7,22.6,79.7,0,60,0.89,180,��,4.6,18
2011/7/12,15:00:00,135,�쓌,2.7,23.2,78.1,0,60,0.75,158,��쓌,4.9,14
2011/7/12,16:00:00,113,���쓌,2.7,22.7,78.7,0,60,0.57,158,��쓌,4.6,30
2011/7/12,17:00:00,90,��,2.3,21.1,82.7,0,60,0.4,113,���쓌,4.3,5
2011/7/12,18:00:00,68,���k��,2.2,17.7,92.7,0,47,0.2,90,��,3.5,32
2011/7/12,19:00:00,68,���k��,2.6,16.7,97.2,0,0,0.04,45,�k��,4.2,28
2011/7/12,20:00:00,68,���k��,2.4,16.6,97.7,0,0,0.01,68,���k��,3.9,2
2011/7/12,21:00:00,45,�k��,1,16.9,97.1,0,0,0.01,68,���k��,2,35
2011/7/12,22:00:00,315,�k��,0.5,17.2,96.5,0,0,0.01,23,�k�k��,2.2,41
2011/7/12,23:00:00,68,���k��,0.5,16.6,96.9,0,0,0.01,293,���k��,1.7,13
2011/7/12,0:00:00,45,�k��,1.4,16.7,97.5,0,0,0.01,68,���k��,3,28
2011/7/13,1:00:00,45,�k��,0.9,16.6,98.3,0,0,0.01,45,�k��,2.5,29
2011/7/13,2:00:00,68,���k��,1,16.3,98.6,0,0,0.01,45,�k��,2.2,8
2011/7/13,3:00:00,23,�k�k��,1,16,98.7,0,0,0.01,360,�k,1.7,52
2011/7/13,4:00:00,293,���k��,0.5,16,98.8,0,0,0.01,23,�k�k��,1.8,2
2011/7/13,5:00:00,315,�k��,0.8,16.4,98.9,0,0,0.03,338,�k�k��,1.5,31
2011/7/13,6:00:00,293,���k��,0.9,17.5,98.8,0,16,0.08,293,���k��,2.1,47
2011/7/13,7:00:00,360,�k,0.8,18.4,98.5,0,60,0.2,293,���k��,1.9,12
2011/7/13,8:00:00,90,��,1.1,21.1,94.1,0,60,0.46,68,���k��,3.2,48
2011/7/13,9:00:00,113,���쓌,2.6,20.6,85.6,0,60,0.7,113,���쓌,4.4,51
2011/7/13,10:00:00,135,�쓌,2.4,22.7,82.7,0,60,0.8,113,���쓌,4,2
2011/7/13,11:00:00,135,�쓌,2.5,22.9,78.7,0,60,0.91,113,���쓌,4.9,59
2011/7/13,12:00:00,135,�쓌,3,21.3,78.1,0,60,0.96,113,���쓌,5.6,48
2011/7/13,13:00:00,135,�쓌,2.9,22.2,79.5,0,60,0.91,113,���쓌,4.6,18
2011/7/13,14:00:00,158,��쓌,1.9,22.8,79,0,60,0.92,135,�쓌,5.2,15
2011/7/13,15:00:00,90,��,3.1,21.3,81.7,0,60,0.49,68,���k��,4.4,54
2011/7/13,16:00:00,360,�k,1.2,20.4,92.5,1.5,36,0.25,113,���쓌,3.8,2
2011/7/13,17:00:00,68,���k��,3,20,93.1,0,18,0.11,90,��,4.4,56
2011/7/13,18:00:00,68,���k��,2.4,20.2,94.3,0.5,24,0.12,68,���k��,4.4,58
2011/7/13,19:00:00,68,���k��,3.1,18.1,95.6,0,0,0.02,68,���k��,6.8,34
2011/7/13,20:00:00,248,���쐼,1.3,18.2,96.4,0,0,0.01,45,�k��,5.1,6
2011/7/13,21:00:00,23,�k�k��,0.7,18.3,94.8,0,0,0.01,68,���k��,2.5,26
2011/7/13,22:00:00,360,�k,1.4,18.1,96,0,0,0.01,23,�k�k��,2.9,25
2011/7/13,23:00:00,338,�k�k��,1.1,18,96.5,0,0,0.01,23,�k�k��,2,41
2011/7/13,0:00:00,45,�k��,0.6,18.3,96.4,0,0,0.01,360,�k,1.5,34
2011/7/14,1:00:00,135,�쓌,0.6,18.3,96.9,0,0,0.01,90,��,1.3,59
2011/7/14,2:00:00,45,�k��,2.4,18,97.6,1,0,0.01,45,�k��,4.3,59
2011/7/14,3:00:00,45,�k��,2.4,17.8,98,0,0,0.01,45,�k��,4.8,12
2011/7/14,4:00:00,68,���k��,2.9,17.5,98.1,0,0,0.01,45,�k��,4.5,59
2011/7/14,5:00:00,23,�k�k��,1.7,16.9,98.4,0,0,0.01,68,���k��,4.5,13
2011/7/14,6:00:00,45,�k��,1.3,17.2,98.6,0,0,0.03,360,�k,3.8,23
2011/7/14,7:00:00,68,���k��,2.5,16.9,98.7,0,0,0.06,68,���k��,3.7,50
2011/7/14,8:00:00,68,���k��,2.3,16.9,98.7,0,0,0.09,68,���k��,3.6,3
2011/7/14,9:00:00,45,�k��,3,16.7,98.7,0.5,3,0.1,90,��,5,41
2011/7/14,10:00:00,45,�k��,2.9,16.3,98.7,0,0,0.09,45,�k��,4.8,22
2011/7/14,11:00:00,45,�k��,3.2,16.5,98.6,1.5,14,0.1,45,�k��,4.7,0
2011/7/14,12:00:00,45,�k��,2.9,16.3,98.5,0.5,54,0.13,45,�k��,6.6,19
2011/7/14,13:00:00,45,�k��,2.8,16.3,98.4,0.5,6,0.11,68,���k��,5.7,10
2011/7/14,14:00:00,23,�k�k��,2,17.3,98.1,0,12,0.11,23,�k�k��,4.8,1
2011/7/14,15:00:00,45,�k��,3.5,16.6,96.5,0,7,0.1,23,�k�k��,5.4,51
2011/7/14,16:00:00,23,�k�k��,1.9,16.4,97.7,0.5,0,0.06,68,���k��,5.4,18
2011/7/14,17:00:00,360,�k,0.9,16.6,97.7,0,0,0.06,45,�k��,3,29
2011/7/14,18:00:00,68,���k��,2,16,98.2,0,0,0.03,68,���k��,3.4,20
2011/7/14,19:00:00,68,���k��,1.2,15.7,98.5,1,0,0.01,68,���k��,3.5,2
2011/7/14,20:00:00,45,�k��,2.1,15.4,98.6,0.5,0,0.01,45,�k��,3.5,45
2011/7/14,21:00:00,90,��,2.4,14.8,98.6,0.5,0,0.01,68,���k��,4.1,34
2011/7/14,22:00:00,113,���쓌,1.5,14.7,98.7,0.5,0,0.01,113,���쓌,3.3,46
2011/7/14,23:00:00,68,���k��,1.5,14.4,98.5,3.5,0,0.01,90,��,2.7,42
2011/7/14,0:00:00,68,���k��,2.8,14,98.5,1,0,0.01,68,���k��,4.1,51
2011/7/15,1:00:00,45,�k��,2.9,13.6,98.4,0.5,0,0.01,45,�k��,4.9,24
2011/7/15,2:00:00,45,�k��,1.7,13.5,98.5,2,0,0.01,45,�k��,4.5,18
2011/7/15,3:00:00,45,�k��,2.8,13.1,98.5,2.5,0,0.01,45,�k��,4.2,58
2011/7/15,4:00:00,45,�k��,2.4,12.9,98.3,3,0,0.01,45,�k��,4.3,3
2011/7/15,5:00:00,68,���k��,3.4,13,98.4,3.5,0,0.01,68,���k��,4.7,49
2011/7/15,6:00:00,45,�k��,3.9,13.2,98.1,0,0,0.04,45,�k��,6.2,20
2011/7/15,7:00:00,68,���k��,3.2,13.4,98.1,0,4,0.08,68,���k��,6.1,17
2011/7/15,8:00:00,68,���k��,1.9,13.7,97.7,0,60,0.18,45,�k��,4.9,32
2011/7/15,9:00:00,68,���k��,2.3,14.3,95.6,0,60,0.28,45,�k��,4.6,15
2011/7/15,10:00:00,68,���k��,2.5,15,91.9,0,60,0.4,68,���k��,5.6,21
2011/7/15,11:00:00,68,���k��,2.3,14.8,92.1,0,60,0.41,68,���k��,5.3,21
2011/7/15,12:00:00,68,���k��,2.2,15,90.1,0,60,0.44,45,�k��,4,44
2011/7/15,13:00:00,68,���k��,2.6,16.1,87.6,0,60,0.55,90,��,4.5,46
2011/7/15,14:00:00,68,���k��,2.6,14.9,86.6,0,60,0.42,45,�k��,5,4
2011/7/15,15:00:00,68,���k��,2.5,14.9,89.9,0,60,0.3,45,�k��,4.4,47
2011/7/15,16:00:00,68,���k��,2,13.9,94.2,0,46,0.17,45,�k��,3.8,17
2011/7/15,17:00:00,68,���k��,2.2,13.6,96.4,0,15,0.11,45,�k��,4,24
2011/7/15,18:00:00,68,���k��,2.3,13.2,96.8,0,0,0.05,68,���k��,3.3,41
2011/7/15,19:00:00,68,���k��,2.3,13,96.7,0,0,0.02,68,���k��,3.4,26
2011/7/15,20:00:00,68,���k��,1.4,13,97.3,0,0,0.01,90,��,2.9,12
2011/7/15,21:00:00,90,��,1.2,13,98,0.5,0,0.01,68,���k��,2.2,12
2011/7/15,22:00:00,68,���k��,1.7,13,98.3,0,0,0.01,68,���k��,2.3,45
2011/7/15,23:00:00,45,�k��,1.5,13,98.2,0,0,0.01,45,�k��,2.6,31
2011/7/15,0:00:00,68,���k��,1.2,12.9,98.4,0,0,0.01,45,�k��,2.6,38
2011/7/16,1:00:00,360,�k,1.2,12.7,98.6,0,0,0.01,360,�k,2.5,27
2011/7/16,2:00:00,360,�k,1.6,12.7,98.7,0,0,0.01,360,�k,2.6,32
2011/7/16,3:00:00,360,�k,1.2,12.6,98.8,0.5,0,0.01,360,�k,2.2,39
2011/7/16,4:00:00,23,�k�k��,1.3,12.6,99,0,0,0.01,360,�k,2.2,9
2011/7/16,5:00:00,360,�k,1.2,12.7,99.1,0,0,0.02,360,�k,2.2,45
2011/7/16,6:00:00,23,�k�k��,1.7,13.1,99.1,0,0,0.05,23,�k�k��,2.7,55